Date String (YYYY-MM-DD hh:mm:ss) UTC,Instrument flags,Ambient pressure (hPa),Sample flow (lpm),Bypass flow (lpm),Sample temperature (°C),Ambient temperature (°C),ASC tube jacket temperature (°C),LED temperature (°C),Box temperature (°C),Sample RH (%),Span deviation,Mass concentration (μg/m³),Mass concentration (μg/m³),Mass concentration (μg/m³)
DateTimeUTC,F1_M11,P_M11,Q1_M11,Q2_M11,T1_M11,T2_M11,T3_M11,T4_M11,T5_M11,U1_M11,ZSPAN_M11,X0_M11,X2_M11,X1_M11
2023-03-10 17:00:00,,0818.0,5.02,0.00,21.6,19.9,00.0,30.6,23.1,17.5,-000.7,0014.19,0010.95,0010.52
2023-03-10 17:01:00,,0818.0,4.98,0.00,21.7,21.4,00.0,30.6,23.5,17.5,-000.6,0014.27,0010.97,0010.53
2023-03-10 17:02:00,,0817.9,5.00,0.00,21.9,22.5,00.0,30.6,23.8,17.2,-000.7,0014.37,0011.00,0010.54
2023-03-10 17:03:00,,0817.9,4.97,0.00,21.9,22.2,00.0,30.6,23.8,17.3,-000.9,0014.23,0010.96,0010.52
2023-03-10 17:04:00,,0817.9,4.99,0.00,21.9,21.6,00.0,30.7,23.7,17.3,-000.8,0014.06,0010.93,0010.51
2023-03-10 17:05:00,,0817.9,5.01,0.00,21.9,21.1,00.0,30.7,23.5,17.2,-000.7,0013.95,0010.89,0010.50
2023-03-10 17:06:00,,0817.8,4.99,0.00,21.8,20.7,00.0,30.7,23.4,17.3,-000.7,0013.90,0010.86,0010.46
2023-03-10 17:07:00,,0817.8,5.00,0.00,21.8,20.4,00.0,30.6,23.2,17.2,-001.0,0014.02,0010.85,0010.40
2023-03-10 17:08:00,,0817.9,5.01,0.00,21.7,20.1,00.0,30.6,23.2,17.3,-001.3,0014.05,0010.83,0010.37
2023-03-10 17:09:00,,0817.8,4.99,0.00,21.7,19.9,00.0,30.6,23.1,17.4,-001.1,0014.31,0010.78,0010.34
2023-03-10 17:10:00,,0817.8,5.00,0.00,21.6,19.8,00.0,30.6,23.1,17.2,-001.2,0014.26,0010.74,0010.30
2023-03-10 17:11:00,,0817.7,5.00,0.00,21.6,19.7,00.0,30.5,23.0,17.1,-001.3,0014.19,0010.71,0010.28
2023-03-10 17:12:00,,0817.8,5.00,0.00,21.5,19.7,00.0,30.5,23.0,17.3,-001.4,0014.35,0010.63,0010.24
2023-03-10 17:13:00,,0817.8,5.00,0.00,21.5,19.7,00.0,30.5,23.1,17.5,-001.4,0015.08,0010.58,0010.22
2023-03-10 17:14:00,,0817.7,5.02,0.00,21.5,20.4,00.0,30.5,23.2,17.6,-001.4,0015.23,0010.61,0010.22
2023-03-10 17:15:00,,0817.8,5.00,0.00,21.7,22.2,00.0,30.5,23.6,17.4,-001.6,0015.27,0010.62,0010.20
2023-03-10 17:16:00,,0817.9,5.03,0.00,21.8,23.0,00.0,30.5,23.9,17.3,-001.8,0015.31,0010.61,0010.19
2023-03-10 17:17:00,,0817.9,5.03,0.00,21.9,22.4,00.0,30.6,23.8,17.2,-001.8,0015.44,0010.62,0010.21
2023-03-10 17:18:00,,0817.9,5.01,0.00,21.9,21.8,00.0,30.6,23.7,17.4,-001.4,0015.47,0010.65,0010.24
2023-03-10 17:19:00,,0817.8,5.00,0.00,21.8,21.2,00.0,30.6,23.5,17.2,-001.1,0015.45,0010.66,0010.27
2023-03-10 17:20:00,,0817.7,5.00,0.00,21.8,20.8,00.0,30.6,23.4,17.1,-001.2,0015.69,0010.73,0010.30
2023-03-10 17:21:00,,0817.8,5.00,0.00,21.8,20.6,00.0,30.6,23.3,17.3,-001.2,0016.03,0010.74,0010.32
2023-03-10 17:22:00,,0817.7,4.99,0.00,21.7,20.3,00.0,30.6,23.3,17.4,-001.2,0016.15,0010.80,0010.35
2023-03-10 17:23:00,,0817.6,4.99,0.00,21.7,20.1,00.0,30.6,23.1,17.3,-001.1,0016.15,0010.86,0010.38
2023-03-10 17:24:00,,0817.6,5.02,0.00,21.6,19.9,00.0,30.5,23.1,17.5,-001.0,0015.47,0010.94,0010.43
2023-03-10 17:25:00,,0817.5,5.01,0.00,21.6,19.8,00.0,30.5,23.0,17.4,-001.0,0015.94,0010.94,0010.45
2023-03-10 17:26:00,,0817.6,4.99,0.00,21.5,19.7,00.0,30.5,23.0,17.5,-001.1,0015.96,0010.95,0010.46
2023-03-10 17:27:00,,0817.5,5.00,0.00,21.5,19.7,00.0,30.5,23.0,17.6,-000.9,0015.95,0010.97,0010.48
2023-03-10 17:28:00,,0817.6,5.00,0.00,21.5,19.7,00.0,30.4,23.0,17.9,-001.0,0016.04,0010.98,0010.50
2023-03-10 17:29:00,,0817.5,4.99,0.00,21.4,19.6,00.0,30.4,22.9,17.6,-001.3,0016.23,0010.98,0010.54
2023-03-10 17:30:00,,0817.4,4.99,0.00,21.4,19.6,00.0,30.4,22.9,17.6,-001.3,0016.35,0011.05,0010.57
2023-03-10 17:31:00,,0817.4,5.00,0.00,21.5,20.9,00.0,30.4,23.2,17.6,-001.1,0016.02,0011.11,0010.61
2023-03-10 17:32:00,,0817.3,5.02,0.00,21.6,22.4,00.0,30.4,23.6,17.5,-001.1,0015.98,0011.16,0010.65
2023-03-10 17:33:00,,0817.4,5.00,0.00,21.8,22.3,00.0,30.4,23.7,17.5,-001.1,0016.05,0011.18,0010.70
2023-03-10 17:34:00,,0817.4,5.00,0.00,21.8,21.7,00.0,30.5,23.6,17.5,-001.4,0016.20,0011.20,0010.73
2023-03-10 17:35:00,,0817.4,5.02,0.00,21.8,21.2,00.0,30.5,23.4,17.5,-001.6,0016.89,0011.26,0010.77
2023-03-10 17:36:00,,0817.5,4.98,0.00,21.7,20.9,00.0,30.5,23.3,17.4,-001.7,0016.69,0011.33,0010.81
2023-03-10 17:37:00,,0817.5,4.99,0.00,21.7,20.6,00.0,30.5,23.2,17.5,-001.8,0016.81,0011.41,0010.89
2023-03-10 17:38:00,,0817.4,5.01,0.00,21.6,20.4,00.0,30.5,23.2,17.5,-001.9,0016.84,0011.45,0010.93
2023-03-10 17:39:00,,0817.2,4.99,0.00,21.6,20.2,00.0,30.5,23.2,17.5,-001.9,0017.42,0011.52,0010.97
2023-03-10 17:40:00,,0817.0,5.00,0.00,21.6,20.1,00.0,30.5,23.2,17.4,-002.0,0017.33,0011.55,0010.97
2023-03-10 17:41:00,,0817.0,5.00,0.00,21.6,20.0,00.0,30.5,23.1,17.2,-002.1,0017.62,0011.53,0010.97
2023-03-10 17:42:00,,0817.1,5.00,0.00,21.6,19.9,00.0,30.4,23.1,17.5,-002.3,0017.55,0011.51,0010.95
2023-03-10 17:43:00,,0817.1,5.00,0.00,21.5,19.9,00.0,30.4,23.1,17.8,-002.3,0017.29,0011.55,0010.97
2023-03-10 17:44:00,,0817.1,5.00,0.00,21.5,19.8,00.0,30.4,23.1,17.8,-002.4,0017.36,0011.56,0010.97
2023-03-10 17:45:00,,0817.1,5.00,0.00,21.5,19.7,00.0,30.4,23.0,17.7,-002.2,0017.35,0011.59,0010.98
2023-03-10 17:46:00,,0817.0,5.00,0.00,21.4,19.6,00.0,30.4,22.9,17.7,-002.1,0016.81,0011.56,0010.98
2023-03-10 17:47:00,,0817.0,5.01,0.00,21.4,20.0,00.0,30.3,23.0,17.8,-002.0,0016.78,0011.56,0010.99
2023-03-10 17:48:00,,0817.0,5.00,0.00,21.5,21.8,00.0,30.3,23.4,17.5,-002.0,0016.65,0011.50,0010.96
2023-03-10 17:49:00,,0817.0,4.99,0.00,21.7,22.8,00.0,30.4,23.7,17.4,-001.8,0016.65,0011.49,0010.94
2023-03-10 17:50:00,,0817.0,4.98,0.00,21.8,22.3,00.0,30.4,23.7,17.3,-001.8,0016.14,0011.50,0010.92
2023-03-10 17:51:00,,0817.2,5.01,0.00,21.8,21.8,00.0,30.5,23.6,17.1,-001.8,0016.02,0011.49,0010.92
2023-03-10 17:52:00,,0817.0,5.00,0.00,21.8,21.4,00.0,30.5,23.6,17.3,-001.6,0015.74,0011.44,0010.90
2023-03-10 17:53:00,,0817.0,5.01,0.00,21.8,21.1,00.0,30.5,23.5,17.3,-001.7,0016.43,0011.41,0010.87
2023-03-10 17:54:00,,0817.1,5.00,0.00,21.8,20.8,00.0,30.5,23.4,17.3,-001.8,0016.76,0011.38,0010.82
2023-03-10 17:55:00,,0817.1,5.01,0.00,21.7,20.6,00.0,30.5,23.3,17.4,-001.7,0016.86,0011.37,0010.79
2023-03-10 17:56:00,,0817.1,5.00,0.00,21.7,20.4,00.0,30.5,23.2,17.8,-001.8,0016.84,0011.34,0010.76
2023-03-10 17:57:00,,0817.0,5.01,0.00,21.7,20.3,00.0,30.5,23.2,17.8,-001.8,0016.71,0011.36,0010.75
2023-03-10 17:58:00,,0816.9,5.01,0.00,21.6,20.2,00.0,30.5,23.2,17.7,-002.0,0016.58,0011.34,0010.72
2023-03-10 17:59:00,,0816.8,5.02,0.00,21.6,20.1,00.0,30.5,23.1,17.6,-001.9,0016.73,0011.38,0010.73
